Date,TemperatureHighF,TemperatureAvgF,TemperatureLowF,DewpointHighF,DewpointAvgF,DewpointLowF,HumidityHigh,HumidityAvg,HumidityLow,PressureMaxIn,PressureMinIn,WindSpeedMaxMPH,WindSpeedAvgMPH,GustSpeedMaxMPH,PrecipitationSumIn
2013-1-1,64.8,49.5,38.7,61.8,40.6,25.8,95,72,51,29.42,29.12,10,3,13,0.04
2013-1-2,43.5,37.6,31.8,25.8,20.3,18.0,74,50,38,29.47,29.39,7,2,12,0.00
2013-1-3,46.6,39.8,29.7,26.9,20.5,17.8,82,47,34,29.59,29.44,6,2,8,0.00
2013-1-4,44.1,40.7,36.5,41.1,34.2,19.6,92,79,38,29.65,29.53,6,0,8,0.25
2013-1-5,57.9,45.7,37.8,44.0,35.5,27.0,92,71,35,29.53,29.39,0,0,0,0.00
2013-1-6,59.2,47.7,38.3,46.1,29.2,18.8,94,55,24,29.53,29.42,8,2,10,0.00
2013-1-7,51.1,39.5,32.9,26.4,21.6,18.5,63,49,38,29.47,29.42,4,0,6,0.00
2013-1-8,61.5,55.6,41.3,57.6,48.2,-99.9,89,83,38,29.97,29.12,6,2,8,0.20
2013-1-9,64.6,60.9,56.1,60.3,56.8,51.7,88,86,84,29.18,28.97,10,2,13,1.45
2013-1-10,67.1,58.8,48.6,61.0,43.6,31.1,96,61,27,29.21,29.15,7,1,11,0.05
2013-1-11,73.2,60.4,45.9,63.9,48.5,37.5,87,67,33,29.18,29.00,10,2,15,0.00
2013-1-12,78.3,68.9,46.0,73.4,58.5,24.1,87,71,35,29.09,28.85,10,2,15,0.00
2013-1-13,51.4,43.2,36.9,31.5,18.1,14.2,48,36,27,29.97,29.06,10,5,17,0.00
2013-1-14,49.1,39.9,33.6,20.6,16.5,12.6,45,39,29,29.39,29.24,8,5,13,0.00
2013-1-15,40.6,36.6,34.3,33.6,27.2,14.7,89,71,41,29.39,29.24,10,4,14,0.00
2013-1-16,53.4,39.1,27.9,16.2,12.0,4.6,48,34,21,29.47,29.33,8,2,10,0.00
2013-1-17,65.8,48.3,33.3,26.3,20.7,11.4,52,35,20,29.62,29.42,7,1,10,0.00
2013-1-18,65.1,50.6,35.8,26.7,23.1,19.5,65,36,20,29.65,29.47,7,1,11,0.00
2013-1-19,68.9,53.4,41.0,44.9,33.8,25.4,87,52,24,29.47,29.30,8,1,11,0.00
2013-1-20,73.6,57.1,43.0,49.0,37.4,30.0,87,54,22,29.42,29.24,7,1,9,0.00
2013-1-21,72.3,58.1,47.7,48.5,37.7,28.9,86,50,26,29.39,29.30,6,1,8,0.00
2013-1-22,72.5,57.0,40.6,41.6,34.0,27.7,72,44,26,29.47,29.36,8,1,12,0.00
2013-1-23,74.8,62.8,51.4,59.4,48.1,41.0,86,63,32,29.50,29.36,8,1,11,0.00
2013-1-24,79.3,68.3,59.9,58.4,52.0,44.7,84,60,30,29.39,29.27,9,2,13,0.00
2013-1-25,79.0,66.9,53.2,58.6,50.6,39.6,82,59,31,29.33,29.21,9,2,10,0.00
2013-1-26,65.5,56.4,52.2,52.6,49.1,39.5,86,77,56,29.36,29.24,4,0,7,0.00
2013-1-27,78.1,68.1,41.3,63.5,56.4,31.5,86,69,36,29.97,29.12,10,3,14,1.87
2013-1-28,76.6,71.3,68.4,63.5,59.3,52.4,81,67,44,29.21,29.03,12,2,22,0.00
2013-1-29,83.5,70.8,41.3,63.2,47.9,15.3,79,49,19,29.97,28.68,10,3,17,1.87
2013-1-30,58.5,51.0,37.9,19.1,13.5,5.2,30,22,19,29.36,28.97,10,3,18,0.00
2013-1-31,69.3,50.9,32.0,22.4,15.7,8.7,50,26,17,29.44,29.33,9,1,10,0.00
2013-2-1,71.1,57.0,43.0,31.2,23.7,15.7,40,28,19,29.50,29.33,9,2,12,0.00
2013-2-2,78.8,60.8,42.6,47.0,35.2,25.1,86,43,21,29.44,29.30,7,2,9,0.00
2013-2-3,72.3,60.6,43.0,36.1,25.9,20.6,49,28,16,29.50,29.21,8,2,10,0.00
2013-2-4,76.1,63.4,57.6,55.8,48.3,35.9,84,61,31,29.21,28.97,7,2,11,0.00
2013-2-5,79.7,65.5,51.1,53.5,40.4,30.0,85,47,18,29.15,29.03,5,1,8,0.00
2013-2-6,75.6,65.4,59.7,61.5,51.2,40.7,86,63,31,29.18,29.00,7,1,11,0.03
2013-2-7,84.9,68.4,59.5,55.3,44.4,26.1,82,49,18,29.24,29.03,10,2,16,0.00
2013-2-8,68.4,58.8,48.7,34.1,25.0,17.3,47,29,17,29.39,29.24,8,3,13,0.00
2013-2-9,69.1,59.6,52.7,64.4,51.9,26.1,87,76,31,29.27,28.94,10,2,15,0.00
2013-2-10,70.9,63.1,54.7,66.0,36.5,18.8,85,44,17,29.18,28.91,10,2,13,0.17
2013-2-11,58.1,54.5,51.1,47.6,36.5,23.4,85,52,27,29.24,29.15,7,3,10,0.03
2013-2-12,71.8,60.2,49.5,56.1,41.7,18.5,86,58,17,29.21,28.97,10,2,10,0.00
2013-2-13,63.5,49.7,39.0,28.4,24.1,18.6,61,39,21,29.30,29.18,9,3,13,0.00
2013-2-14,71.2,54.0,36.3,42.0,27.3,19.6,86,44,17,29.30,29.15,8,2,11,0.00
2013-2-15,62.1,50.5,40.6,31.9,24.3,13.2,68,37,26,29.53,29.21,8,3,13,0.00
2013-2-16,67.3,50.0,33.1,22.7,16.6,10.4,49,28,17,29.59,29.36,7,1,10,0.00
2013-2-17,70.3,53.4,37.4,28.9,21.7,15.2,51,30,19,29.36,29.15,11,3,19,0.00
2013-2-18,60.3,58.0,41.3,31.5,20.7,18.9,38,23,22,29.97,29.21,9,4,15,4.03
2013-2-19,68.7,57.1,41.7,24.2,20.9,18.1,43,25,17,29.44,29.24,7,2,10,0.00
2013-2-20,72.7,58.1,52.5,67.6,40.7,21.1,85,56,25,29.27,28.85,7,1,13,0.00
2013-2-21,79.9,68.3,53.4,74.6,38.6,15.3,86,42,15,29.03,28.77,10,3,17,0.00
2013-2-22,55.6,48.7,41.3,31.5,23.0,16.0,54,37,23,29.97,29.00,8,3,11,2.10
2013-2-23,70.7,53.3,39.7,28.1,21.4,15.9,44,30,17,29.24,29.03,8,2,11,0.00
2013-2-24,73.6,58.0,39.0,53.7,35.2,23.8,76,45,23,29.09,28.77,10,3,14,0.00
2013-2-25,64.2,56.2,41.3,57.2,28.1,14.9,83,39,18,29.97,28.74,15,6,24,0.00
2013-2-26,66.7,53.0,40.1,23.5,18.6,13.5,40,27,17,29.12,29.00,10,2,13,0.00
2013-2-27,63.0,53.7,44.2,24.7,17.5,10.1,31,24,18,29.39,29.03,10,3,14,0.00
2013-2-28,62.2,49.2,40.1,20.9,16.0,9.2,40,27,19,29.47,29.33,10,3,12,0.00
2013-3-1,69.6,52.0,33.3,22.9,18.5,13.2,56,29,17,29.44,29.27,9,2,14,0.00
2013-3-2,62.6,49.6,38.8,19.5,17.2,12.1,43,28,19,29.56,29.42,9,2,13,0.00
2013-3-3,74.8,57.5,38.8,31.1,21.0,11.7,36,25,16,29.97,29.09,11,4,20,0.00
2013-3-4,87.3,68.3,54.7,47.7,37.4,28.5,67,37,16,29.09,28.85,10,3,14,0.00
2013-3-5,66.0,56.9,46.2,52.2,23.1,9.4,72,29,18,29.50,28.94,12,5,24,0.00
2013-3-6,64.6,51.1,38.7,20.1,13.0,5.3,29,22,18,29.59,29.39,7,2,9,0.00
2013-3-7,73.0,57.8,41.0,42.1,30.3,11.0,58,36,22,29.42,29.27,9,2,13,0.00
2013-3-8,72.3,64.3,57.2,67.4,56.0,41.2,86,75,49,29.33,29.18,9,1,13,0.14
2013-3-9,72.3,66.9,61.9,63.5,57.5,53.4,82,73,52,29.21,28.85,14,3,20,0.00
2013-3-10,66.7,60.1,47.3,60.7,32.1,17.3,84,39,23,29.30,28.88,10,4,17,0.57
2013-3-11,68.2,51.1,35.4,28.9,19.3,13.4,69,32,17,29.36,29.18,9,2,11,0.00
2013-3-12,80.1,59.0,38.5,30.1,22.9,16.6,48,27,15,29.39,29.24,9,2,14,0.00
2013-3-13,59.5,52.5,47.7,27.3,23.8,20.6,37,33,25,29.53,29.39,4,0,5,0.00
2013-3-16,84.9,76.0,41.3,54.6,43.7,31.5,63,35,19,29.97,28.91,11,6,19,2.98
2013-3-17,67.6,66.3,65.1,58.2,55.8,54.0,77,69,62,29.00,28.94,9,1,18,0.00
2013-3-19,74.1,69.4,41.3,58.2,40.5,31.5,77,35,32,29.97,28.94,8,3,9,0.00
2013-3-20,72.0,61.6,53.6,55.0,37.3,22.5,86,47,19,29.42,29.15,10,2,14,0.17
2013-3-21,75.2,64.3,54.5,55.4,40.7,25.2,69,43,29,29.21,28.80,11,4,20,0.00
2013-3-22,86.4,70.8,54.7,66.0,52.2,36.6,85,56,26,28.97,28.82,8,2,10,0.00
2013-3-23,81.1,61.1,51.4,52.9,44.2,37.1,79,57,28,28.97,28.77,6,1,9,0.00
2013-3-24,63.7,52.4,42.3,55.8,23.4,11.3,83,35,19,29.33,28.85,12,4,18,0.00
2013-3-25,60.4,48.4,36.1,18.0,13.1,9.8,37,24,19,29.53,29.33,8,2,10,0.00
2013-3-26,67.6,50.9,32.9,21.3,14.8,6.3,50,25,17,29.62,29.44,5,1,7,0.00
2013-3-27,69.8,56.1,37.4,38.0,24.9,10.1,50,31,22,29.47,29.30,9,3,13,0.00
2013-3-28,74.3,63.7,54.7,51.3,45.8,38.0,74,54,33,29.36,29.27,9,2,13,0.00
2013-3-29,77.7,68.2,60.1,57.0,48.2,40.8,83,54,28,29.33,29.21,8,2,12,0.00
2013-3-30,84.7,72.3,64.9,57.9,51.2,41.3,77,51,23,29.30,29.06,8,2,10,0.00
2013-3-31,79.9,69.4,41.3,60.4,55.4,31.5,79,62,37,29.97,29.03,7,1,12,0.00
2013-4-1,87.1,72.5,59.4,57.2,50.9,41.9,83,51,23,29.24,29.06,9,1,11,0.00
2013-4-2,75.6,68.4,41.3,67.0,60.1,31.5,85,75,38,29.97,28.97,8,1,12,0.00
2013-4-3,61.2,53.7,41.3,56.3,48.2,31.5,85,81,38,29.97,29.12,5,1,8,0.00
2013-4-4,58.8,51.1,46.4,44.8,34.9,28.4,80,56,35,29.36,29.27,8,2,13,0.00
2013-4-5,63.0,47.8,41.5,45.8,36.5,28.0,86,69,28,29.42,29.36,4,0,4,0.00
2013-4-6,80.8,73.5,41.3,53.7,44.3,31.5,69,37,23,29.97,29.00,8,4,14,0.00
2013-4-7,82.2,69.6,63.5,59.0,53.2,46.4,81,59,30,29.09,28.91,8,2,13,0.00
2013-4-8,75.6,70.2,66.7,61.8,57.9,52.7,79,66,46,29.00,28.85,8,1,14,0.00
2013-4-9,85.5,74.4,69.8,63.5,59.0,51.2,76,61,33,28.88,28.77,9,2,14,0.00
2013-4-10,73.8,57.3,46.6,64.9,46.0,32.5,85,67,43,29.12,28.82,9,2,13,0.00
2013-4-11,69.3,53.6,42.3,36.5,29.1,23.0,76,42,22,29.15,28.97,10,2,15,0.00
2013-4-12,81.5,63.1,46.0,51.6,34.8,28.3,85,43,17,29.18,29.00,6,1,9,0.00
2013-4-13,78.6,65.9,52.5,53.7,40.9,33.0,84,44,21,29.12,28.94,6,1,10,0.00
2013-4-14,86.9,71.7,58.6,62.3,52.7,43.1,83,55,29,28.97,28.77,9,2,11,0.00
2013-4-15,87.8,76.8,70.0,64.4,57.5,49.8,80,55,29,28.97,28.85,8,2,14,0.00
2013-4-16,86.4,76.2,68.5,66.4,57.6,50.6,77,55,32,29.06,28.97,8,3,15,0.00
2013-4-17,84.0,77.0,72.7,73.7,63.6,53.8,84,65,37,29.03,28.82,9,3,15,0.00
2013-4-18,75.7,62.1,50.2,69.1,45.3,23.7,83,58,27,29.27,28.82,9,3,13,0.00
2013-4-19,68.7,55.9,43.5,24.7,20.8,14.1,42,27,17,29.44,29.27,8,2,10,0.00
2013-4-20,72.9,54.2,37.9,32.6,24.2,16.6,73,36,16,29.39,29.21,7,1,10,0.00
2013-4-21,78.1,64.0,41.3,48.0,40.5,31.5,75,45,23,29.97,29.15,6,1,10,0.00
2013-4-22,84.6,71.2,58.1,61.2,48.5,41.1,84,50,23,29.27,29.03,8,2,12,0.00
2013-4-23,79.2,65.6,49.5,59.3,49.8,31.4,78,58,32,29.27,29.00,8,2,13,0.00
2013-4-24,63.9,53.4,44.1,34.9,26.3,20.6,65,37,24,29.42,29.27,8,3,15,0.00
2013-4-25,71.1,62.1,54.9,33.6,30.2,28.2,39,30,23,29.47,29.33,5,0,8,0.00
2013-4-26,81.5,71.2,60.4,76.2,58.0,29.1,85,65,26,29.33,29.18,8,1,11,0.00
2013-4-27,87.8,75.2,69.1,64.9,58.4,49.8,81,59,29,29.27,29.09,5,0,9,0.00
2013-4-28,87.6,74.9,64.8,69.1,52.7,40.4,84,52,20,29.18,29.00,6,1,9,0.00
2013-4-29,86.4,73.0,66.2,64.2,56.9,44.1,82,61,29,29.09,28.94,10,1,14,0.00
2013-4-30,83.8,73.2,65.5,65.5,55.8,46.8,83,58,29,29.00,28.88,6,1,9,0.00
2013-5-1,88.5,76.6,67.8,64.5,55.9,48.9,81,53,28,29.12,28.94,6,1,9,0.00
2013-5-2,74.7,56.7,47.1,58.1,37.9,23.6,69,50,36,29.47,29.09,10,3,21,0.00
2013-5-3,68.7,55.2,43.0,23.6,20.5,14.6,39,27,17,29.47,29.24,9,3,13,0.00
2013-5-4,85.1,65.2,43.7,31.6,25.2,19.9,44,24,13,29.24,29.03,6,0,8,0.00
2013-5-5,76.5,63.6,50.2,33.3,28.6,21.6,39,27,21,29.30,29.15,5,1,9,0.00
2013-5-6,79.9,63.5,50.0,41.4,35.4,30.8,69,39,20,29.33,29.15,4,0,7,0.00
2013-5-7,87.3,70.5,51.4,51.6,40.3,31.8,83,40,16,29.27,29.09,6,1,11,0.00
2013-5-8,85.5,73.2,64.6,60.9,52.5,40.6,81,53,27,29.18,29.03,8,2,12,0.00
2013-5-9,76.5,71.9,66.7,68.1,62.6,56.2,84,73,58,29.15,29.03,5,0,10,0.00
2013-5-10,89.4,74.0,65.8,68.1,58.2,42.3,84,64,21,29.21,28.97,6,0,11,0.00
2013-5-11,81.9,73.4,65.1,66.3,48.6,31.4,84,48,21,29.30,29.15,6,1,8,0.00
2013-5-12,82.9,69.2,57.6,43.6,37.1,28.2,57,33,18,29.42,29.27,6,0,8,0.00
2013-5-13,87.3,71.3,52.3,48.6,38.2,27.8,75,34,16,29.42,29.30,7,1,10,0.00
2013-5-14,86.2,74.2,60.6,61.1,51.1,41.8,82,48,23,29.36,29.15,7,2,12,0.00
2013-5-15,84.6,76.3,69.8,77.8,64.0,55.2,85,68,38,29.27,29.00,10,2,13,0.00
2013-5-16,94.5,79.5,71.6,70.9,62.3,52.2,84,60,27,29.06,28.88,8,2,14,0.00
2013-5-17,93.0,81.4,74.3,67.4,61.3,54.0,77,54,29,29.06,28.94,8,2,12,0.00
2013-5-18,95.4,81.8,72.9,66.8,57.5,46.4,80,49,21,29.09,28.97,10,2,14,0.00
2013-5-19,91.8,80.5,72.7,65.8,58.6,50.3,76,51,28,29.03,28.88,9,3,15,0.00
2013-5-20,93.4,81.0,72.9,66.6,60.0,51.1,79,53,27,29.00,28.85,8,3,13,0.00
2013-5-21,91.0,79.4,70.0,67.6,60.2,49.8,77,55,30,29.06,28.85,10,2,11,0.00
2013-5-22,95.2,78.0,62.2,65.0,52.3,38.2,84,48,17,29.09,28.97,6,1,10,0.00
2013-5-23,88.5,80.6,74.7,68.4,61.6,54.1,78,55,32,29.21,29.03,8,2,10,0.00
2013-5-24,83.7,76.0,41.3,76.2,67.3,31.5,85,75,38,29.97,29.18,6,1,8,0.00
2013-5-25,103.8,82.9,72.7,96.6,75.6,58.6,88,79,51,29.30,29.21,8,1,14,0.00
2013-5-26,86.9,78.0,72.3,72.8,63.7,54.2,88,65,39,29.27,29.15,8,2,14,0.00
2013-5-27,90.9,78.8,70.3,68.1,60.4,52.3,85,57,29,29.18,29.00,8,3,12,0.00
2013-5-28,75.0,75.0,75.0,61.6,61.6,61.6,63,63,63,29.09,29.09,3,3,3,0.00
2013-6-9,88.0,82.9,41.3,63.0,55.6,31.5,61,41,29,29.97,29.03,4,0,6,0.00
2013-6-10,77.5,73.4,71.2,66.7,65.2,62.8,85,76,61,29.15,29.12,3,0,7,0.00
2013-6-12,85.6,81.2,41.3,62.4,56.8,31.5,57,43,31,29.97,29.15,5,2,8,0.00
2013-6-13,97.2,83.0,76.3,72.5,61.5,47.6,84,54,21,29.24,29.09,6,0,8,0.00
2013-6-14,94.8,82.9,73.4,72.5,63.3,49.7,86,56,25,29.18,29.06,5,0,7,0.00
2013-6-15,91.9,83.3,77.2,73.2,63.4,54.3,84,54,31,29.18,29.06,4,0,8,0.00
2013-6-16,99.9,86.3,75.9,70.2,58.0,44.5,81,44,17,29.21,29.06,6,1,11,0.00
2013-6-17,99.0,86.5,76.5,69.9,57.6,43.3,77,44,17,29.18,29.03,8,1,12,0.00
2013-6-18,97.5,82.4,71.2,75.7,61.4,46.1,88,54,21,29.21,29.06,5,0,8,0.41
2013-6-19,98.8,86.2,76.1,71.6,56.6,43.6,84,43,18,29.15,29.06,7,1,12,0.00
2013-6-20,96.1,85.3,74.8,70.5,56.5,42.6,85,44,17,29.24,29.12,8,2,12,0.00
2013-6-21,99.3,86.3,76.5,71.3,55.5,40.4,83,43,16,29.24,29.12,8,2,13,0.00
2013-6-22,98.8,86.1,76.3,70.5,55.8,41.9,82,42,17,29.24,29.06,8,2,12,0.00
2013-6-23,96.1,85.1,76.3,69.7,54.7,39.8,79,41,17,29.18,29.06,8,2,12,0.00
2013-6-24,99.3,85.7,75.6,72.1,57.5,43.3,87,46,16,29.21,29.06,9,2,15,0.00
2013-6-25,100.6,86.8,77.4,70.5,55.7,41.9,79,41,15,29.18,29.03,9,2,15,0.00
2013-6-26,100.9,87.4,76.6,67.7,56.5,43.7,73,41,16,29.15,29.03,7,2,11,0.00
2013-6-27,102.6,88.1,75.9,68.6,53.7,39.1,74,38,13,29.21,29.06,7,1,10,0.00
2013-6-28,105.6,90.2,74.7,69.1,52.4,41.3,82,34,14,29.18,28.97,5,0,8,0.00
2013-6-29,107.8,91.9,74.1,55.0,46.4,38.5,49,24,11,29.03,28.91,6,1,8,0.00
2013-6-30,97.9,83.4,71.1,70.0,54.4,38.9,88,45,18,29.15,29.00,4,0,6,0.41
2013-7-1,90.3,80.4,70.5,44.7,39.9,35.4,37,24,17,29.18,29.09,7,1,11,0.00
2013-7-2,94.1,80.4,69.1,45.8,38.5,31.3,38,24,14,29.27,29.12,5,1,8,0.00
2013-7-3,95.9,81.1,64.8,47.5,38.4,32.1,50,24,14,29.21,29.09,6,1,6,0.00
2013-7-8,88.3,84.2,80.1,66.8,56.0,42.0,64,40,20,29.30,29.21,5,2,8,0.00
2013-7-9,100.8,87.1,75.9,71.8,58.8,44.3,85,46,16,29.33,29.18,7,1,13,0.00
2013-7-10,101.7,87.8,75.2,72.8,57.2,43.3,87,43,16,29.27,29.09,7,1,10,0.00
2013-7-11,102.0,88.0,75.4,69.0,54.6,40.7,79,38,15,29.21,29.03,6,1,10,0.00
2013-7-12,102.9,88.2,73.6,67.5,52.7,41.7,79,35,14,29.15,29.03,6,1,9,0.00
2013-7-13,104.7,90.5,72.9,62.7,48.5,37.8,68,28,12,29.15,29.00,7,1,8,0.00
2013-7-14,97.0,83.0,73.8,64.2,52.7,42.4,72,37,19,29.09,29.03,6,1,10,0.00
2013-7-15,76.5,72.6,41.3,73.3,68.7,31.5,91,88,38,29.97,29.09,3,0,4,0.76
2013-7-16,93.0,79.8,72.7,82.6,65.8,51.0,96,68,27,29.33,29.21,6,1,10,0.00
2013-7-17,92.3,77.3,72.5,76.3,68.9,51.9,91,80,27,29.36,29.27,8,0,13,1.24
2013-7-18,94.6,81.2,73.9,79.4,63.1,47.6,95,61,22,29.33,29.18,6,0,8,0.00
2013-7-19,97.7,82.7,70.7,74.0,58.6,41.9,92,53,17,29.27,29.09,7,1,12,0.00
2013-7-20,98.1,81.3,73.6,77.9,63.4,44.5,89,62,17,29.18,29.03,8,0,8,0.67
2013-7-21,97.5,82.9,74.8,75.1,65.5,50.1,90,61,21,29.15,29.06,8,1,13,0.00
2013-7-22,97.5,85.7,77.7,73.5,62.5,47.6,86,52,21,29.18,29.06,8,2,12,0.00
2013-7-23,99.0,86.2,77.0,70.5,58.6,43.3,79,46,17,29.18,29.03,7,2,10,0.00
2013-7-24,96.6,85.9,76.1,70.5,59.9,45.2,82,47,19,29.18,29.06,6,1,9,0.00
2013-7-25,100.2,87.4,75.7,73.7,56.1,41.3,88,42,16,29.21,29.12,6,1,8,0.00
2013-7-26,99.7,87.1,75.6,73.2,59.0,45.2,88,45,17,29.21,29.03,7,1,10,1.07
2013-7-27,89.2,79.8,74.3,75.8,65.3,52.6,93,66,31,29.18,29.06,6,1,8,0.08
2013-7-28,97.2,84.6,73.9,68.7,59.1,48.0,77,46,20,29.12,29.00,7,1,10,0.00
2013-7-29,99.7,86.4,76.8,70.4,57.0,41.6,79,43,16,29.21,29.09,9,2,17,0.00
2013-7-30,100.8,86.8,76.3,70.7,57.4,42.2,82,44,16,29.27,29.12,8,2,11,0.00
2013-7-31,102.9,87.2,74.1,71.6,55.3,40.9,89,42,14,29.27,29.09,7,1,10,0.00
2013-8-1,103.3,89.4,75.0,67.4,52.9,43.3,75,33,15,29.21,29.06,4,1,7,0.00
2013-8-2,101.1,88.7,75.4,60.9,50.8,42.0,58,30,15,29.15,29.06,8,1,17,0.00
2013-8-3,100.8,88.0,75.7,72.1,55.7,43.3,88,40,16,29.21,29.09,8,2,12,0.00
2013-8-4,99.9,87.7,77.2,72.7,58.7,45.0,85,43,18,29.27,29.09,7,2,12,0.00
2013-8-5,102.7,88.5,75.4,70.7,55.4,41.7,84,39,15,29.21,29.03,7,2,11,0.00
2013-8-6,102.6,90.0,41.3,68.9,54.4,31.5,79,36,15,29.97,28.97,7,2,11,0.00
2013-8-7,105.1,89.4,77.7,68.9,56.3,37.8,74,39,12,29.12,28.94,8,2,12,0.00
2013-8-8,104.2,89.2,76.5,68.5,54.0,37.8,72,37,12,29.09,28.94,7,2,12,0.00
2013-8-9,102.2,87.9,74.8,70.7,53.0,35.6,86,40,12,29.15,29.03,8,1,10,0.00
2013-8-10,103.5,88.6,74.3,67.1,54.5,44.3,75,36,15,29.24,29.09,9,1,11,0.00
2013-8-11,100.0,86.3,74.8,72.1,57.9,44.2,86,43,16,29.27,29.12,8,1,11,0.00
2013-8-12,99.9,86.7,73.4,72.1,56.2,43.3,89,43,16,29.24,29.09,7,1,10,0.00
2013-8-13,103.5,89.1,75.7,71.4,54.1,41.4,85,37,14,29.21,29.06,7,1,12,0.00
2013-8-14,108.0,85.9,76.6,67.2,56.9,44.6,71,42,13,29.18,29.06,7,1,8,0.00
2013-8-15,96.1,82.2,74.5,74.5,63.3,52.1,91,58,24,29.21,29.09,4,1,8,0.04
2013-8-16,97.0,83.1,74.7,80.4,60.0,40.4,92,55,17,29.24,29.09,5,1,6,0.00
2013-8-17,94.8,81.9,71.6,66.7,50.6,38.0,81,40,17,29.24,29.09,6,1,9,0.00
2013-8-18,97.0,82.9,67.3,52.5,43.4,35.8,53,27,14,29.24,29.15,6,1,6,0.00
2013-8-19,95.5,83.1,68.7,63.2,47.2,35.6,80,33,17,29.24,29.09,7,1,9,0.00
2013-8-20,98.8,83.3,69.1,69.3,53.0,40.6,89,41,15,29.21,29.12,8,2,11,0.00
2013-8-21,98.4,83.4,71.4,70.9,58.2,43.9,90,49,17,29.27,29.15,8,2,13,0.00
2013-8-22,99.0,85.8,73.0,72.8,57.3,45.2,90,44,17,29.27,29.09,7,1,10,0.00
2013-8-23,100.8,87.2,73.4,75.1,55.8,43.3,90,42,15,29.21,29.06,7,1,10,0.00
2013-8-24,100.2,87.9,76.1,65.3,53.0,43.7,68,34,16,29.24,29.09,8,1,10,0.00
2013-8-25,95.7,85.0,73.9,67.7,56.1,46.3,79,41,20,29.27,29.18,6,2,10,0.00
2013-8-26,92.1,79.7,73.2,70.4,62.3,51.1,88,59,26,29.30,29.21,7,2,10,0.04
2013-8-27,86.5,78.0,73.6,72.3,63.0,41.2,88,65,22,29.30,29.21,7,0,8,0.00
2013-8-28,97.7,84.5,73.0,78.7,58.9,43.4,93,52,17,29.30,29.18,5,1,8,0.00
2013-8-29,102.6,87.2,73.2,65.6,52.3,41.9,77,36,15,29.27,29.12,6,0,6,0.00
2013-8-30,105.3,89.6,74.1,57.2,48.6,39.4,53,27,14,29.21,29.03,5,0,7,0.00
2013-8-31,103.1,89.3,74.5,63.6,52.1,43.4,68,32,14,29.97,28.97,6,2,9,4.07
2013-9-1,101.3,88.1,74.7,68.5,53.4,43.2,80,36,15,29.12,28.97,6,1,10,0.00
2013-9-2,102.6,88.2,75.2,72.3,55.1,42.6,87,39,15,29.18,29.00,6,1,10,0.00
2013-9-3,104.2,88.1,72.3,67.9,51.8,42.8,83,34,14,29.18,29.03,7,1,8,0.00
2013-9-4,102.6,86.8,75.6,79.5,57.2,43.6,91,44,15,29.24,29.09,8,1,12,0.21
2013-9-5,99.3,84.5,71.4,69.5,56.1,31.5,87,45,16,29.97,29.15,8,1,12,4.28
2013-9-6,98.1,85.7,72.9,72.3,57.0,42.2,90,45,17,29.27,29.12,7,1,10,0.00
2013-9-7,99.3,82.5,73.9,75.5,60.7,43.3,90,54,17,29.21,29.09,10,1,16,0.00
2013-9-8,96.3,81.2,72.7,72.1,61.8,46.3,91,57,20,29.18,29.06,7,1,10,0.00
2013-9-9,93.2,79.3,72.7,74.9,63.3,47.2,92,64,22,29.18,29.09,9,1,12,0.00
2013-9-10,95.4,79.3,74.3,75.7,65.9,47.6,93,69,21,29.24,29.15,8,1,13,0.00
2013-9-11,94.3,82.8,74.5,71.9,58.7,41.6,90,52,18,29.30,29.15,6,1,14,0.00
2013-9-12,97.2,82.3,72.7,74.9,57.3,42.0,91,50,17,29.24,29.09,6,1,9,0.00
2013-9-13,97.9,85.3,71.6,68.2,51.1,40.4,86,38,16,29.15,28.97,6,1,10,0.00
2013-9-14,97.9,83.8,70.7,74.0,52.8,41.6,90,41,17,29.12,29.00,7,1,10,0.37
2013-9-15,93.2,82.6,74.8,73.8,60.7,44.6,91,55,20,29.21,29.09,5,1,9,0.00
2013-9-16,94.3,81.4,74.8,75.8,63.7,49.8,90,60,24,29.24,29.12,6,1,9,0.13
2013-9-17,91.8,83.0,75.2,82.4,69.2,51.1,94,70,27,29.24,29.09,6,1,8,0.00
2013-9-18,95.2,83.3,75.0,77.4,60.6,43.5,94,54,19,29.21,29.03,8,1,10,0.00
2013-9-19,93.9,81.7,76.5,75.8,65.4,36.8,89,62,25,29.12,28.97,9,1,10,0.04
2013-9-20,84.4,78.4,72.5,81.1,75.0,69.4,92,90,79,29.06,28.94,6,0,12,2.27
2013-9-21,83.1,73.4,65.3,69.6,49.9,30.7,91,50,19,29.12,29.00,8,2,12,0.00
2013-9-22,83.3,71.3,41.3,45.1,36.7,30.7,60,30,16,29.97,28.94,5,1,10,7.09
2013-9-23,90.1,73.3,57.6,50.1,41.2,33.3,72,37,15,29.03,28.91,5,0,6,0.00
2013-9-24,94.1,79.6,64.4,55.3,46.0,37.5,68,36,16,29.09,29.00,5,1,8,0.00
2013-9-25,97.5,81.9,66.2,57.1,44.9,38.9,69,31,16,29.09,28.94,6,0,8,0.00
2013-9-26,91.0,80.3,66.6,66.3,48.9,40.4,68,36,18,29.09,28.97,7,1,11,0.00
2013-9-27,90.0,80.5,76.1,76.5,68.2,55.8,88,70,33,29.09,29.00,7,1,10,0.10
2013-9-28,93.0,81.4,75.9,77.0,70.0,53.7,90,73,28,29.15,29.06,8,1,13,0.27
2013-9-29,79.9,72.2,67.1,76.7,65.4,55.4,90,80,54,29.24,29.09,4,0,8,0.46
2013-9-30,90.7,76.1,66.6,69.1,57.9,45.6,89,58,34,29.12,28.97,4,0,8,0.00
2013-10-1,90.1,78.2,64.9,72.5,60.7,49.0,87,59,31,29.12,29.00,6,1,8,0.00
2013-10-2,90.0,80.7,75.0,72.3,64.3,55.0,85,61,33,29.15,29.00,6,1,8,0.00
2013-10-3,90.7,79.9,76.3,70.2,66.5,59.0,81,66,36,29.12,29.06,7,1,10,0.00
2013-10-5,91.8,74.8,41.3,58.7,44.6,31.2,40,34,31,29.97,29.09,8,2,9,0.00
2013-10-6,79.0,65.5,54.9,57.1,42.7,31.3,86,48,22,29.30,29.21,6,1,8,0.00
2013-10-7,85.1,66.5,49.3,45.2,36.5,30.1,71,36,19,29.33,29.21,4,0,5,0.00
2013-10-8,85.1,68.3,51.6,53.5,38.0,30.9,83,38,19,29.27,29.15,6,0,8,0.00
2013-10-9,82.8,69.2,53.2,58.6,43.8,37.4,90,44,23,29.24,29.12,6,0,8,0.00
2013-10-10,84.7,73.5,61.7,66.2,54.2,46.2,91,56,29,29.21,29.06,7,1,10,0.00
2013-10-11,86.9,77.6,70.7,69.3,63.8,58.1,81,65,40,29.12,29.00,6,1,8,0.00
2013-10-12,92.1,80.7,72.3,72.1,65.7,57.6,83,63,39,29.21,29.06,8,1,9,0.00
2013-10-13,80.1,74.0,70.2,79.1,72.5,-16.0,98,96,33,29.33,29.18,8,0,8,0.00
2013-10-14,79.7,76.1,73.6,78.8,74.0,-17.6,98,95,5,29.27,29.09,21,1,39,0.00
2013-10-15,86.7,76.8,72.1,85.4,74.7,-14.8,98,95,2,29.15,29.06,49,2,70,0.00
2013-10-24,78.4,67.0,41.3,48.7,43.9,31.5,69,45,30,29.97,29.30,4,0,5,0.00
2013-10-25,76.1,67.9,41.3,60.7,54.9,31.5,85,64,38,29.39,29.33,6,1,8,0.00
2013-10-26,79.2,69.0,61.9,68.5,63.4,61.1,98,84,59,29.36,29.21,8,1,10,0.00
2013-10-27,73.9,69.2,65.5,73.3,68.6,64.9,98,98,98,29.27,29.15,5,0,10,0.17
2013-10-28,80.1,72.7,66.7,79.1,72.1,66.2,98,98,97,29.24,29.12,9,1,11,0.00
2013-10-29,83.3,75.1,69.8,82.0,74.2,69.2,98,97,87,29.24,29.12,8,1,13,0.00
2013-10-30,83.3,78.5,72.7,82.0,77.6,54.7,98,97,40,29.18,28.94,67,4,100,1.28
2013-10-31,82.4,73.9,56.8,78.3,72.8,56.3,98,96,69,29.03,28.91,106,22,108,1.21
2013-11-1,84.6,67.2,53.4,78.8,58.3,42.6,98,77,44,29.21,28.97,45,45,45,0.00
2013-11-2,72.7,61.9,48.9,46.6,38.8,30.3,62,45,23,29.42,29.21,45,45,45,0.00
2013-11-3,69.4,57.3,44.4,54.6,41.4,32.7,98,61,33,29.36,29.18,45,45,45,0.00
2013-11-4,68.9,64.6,60.1,68.3,63.9,55.2,98,98,84,29.24,29.12,45,45,45,0.04
2013-11-5,75.0,72.1,41.3,74.4,71.5,31.5,98,97,38,29.97,29.09,45,16,45,0.00
2013-11-6,75.0,69.9,68.5,74.4,69.3,67.8,98,98,95,29.44,29.15,34,7,43,0.37
2013-11-7,69.4,69.4,69.4,68.8,68.8,68.8,98,98,98,29.59,29.44,14,14,23,0.00
2013-11-8,69.4,69.4,69.4,68.8,68.8,68.8,98,98,98,29.50,29.30,14,14,23,0.00
2013-11-9,69.4,69.4,69.4,68.8,68.8,68.8,98,98,98,29.33,29.24,14,14,23,0.00
2013-11-10,69.4,69.4,69.4,68.8,68.8,68.8,98,98,98,29.44,29.33,14,14,23,0.00
2013-11-11,69.4,69.4,69.4,68.8,68.8,68.8,98,98,98,29.42,29.30,14,14,23,0.00
2013-11-12,69.4,69.4,69.4,68.8,68.8,68.8,98,98,98,29.74,29.39,14,14,23,0.00
2013-11-13,69.4,69.4,69.4,68.8,68.8,68.8,98,98,98,29.77,29.50,14,14,23,0.00
2013-11-14,69.4,69.4,69.4,68.8,68.8,68.8,98,98,98,29.50,29.18,14,14,23,0.00
2013-11-15,69.4,69.4,69.4,68.8,68.8,68.8,98,98,98,29.18,29.00,14,14,23,0.00
2013-11-16,69.4,69.4,69.4,68.8,68.8,68.8,98,98,98,29.06,29.03,14,14,23,0.00
2013-12-5,41.3,41.3,41.3,31.5,31.5,31.5,38,38,38,29.97,29.18,8,4,13,0.00
2013-12-6,41.3,41.3,41.3,31.5,31.5,31.5,38,38,38,29.56,29.21,9,3,14,0.07
2013-12-7,41.3,41.3,41.3,31.5,31.5,31.5,38,38,38,29.59,29.42,8,2,12,0.07
2013-12-8,41.3,41.3,41.3,31.5,31.5,31.5,38,38,38,29.42,29.15,4,0,5,0.00
2013-12-9,41.3,41.3,41.3,31.5,31.5,31.5,38,38,38,29.53,29.21,42,5,64,0.04
2013-12-10,41.3,41.3,41.3,31.5,31.5,31.5,38,38,38,29.62,29.44,11,11,20,0.00
2013-12-11,41.3,41.3,41.3,31.5,31.5,31.5,38,38,38,29.68,29.44,11,11,20,0.00
2013-12-12,41.3,41.3,41.3,31.5,31.5,31.5,38,38,38,29.71,29.44,11,11,20,0.00
2013-12-13,41.3,41.3,41.3,31.5,31.5,31.5,38,38,38,29.44,29.06,11,10,20,0.17
2013-12-14,41.3,41.3,41.3,31.5,31.5,31.5,38,38,38,29.47,29.03,9,5,43,0.00
2013-12-15,41.3,41.3,41.3,31.5,31.5,31.5,38,38,38,29.53,29.42,9,9,13,0.00
2013-12-16,41.3,41.3,41.3,31.5,31.5,31.5,38,38,38,29.44,29.33,9,9,13,0.00
2013-12-17,41.3,41.3,41.3,31.5,31.5,31.5,38,38,38,29.47,29.36,9,9,13,0.00
2013-12-18,41.3,41.3,41.3,31.5,31.5,31.5,38,38,38,29.44,29.21,9,9,13,0.00
2013-12-19,41.3,41.3,41.3,31.5,31.5,31.5,38,38,38,29.21,28.97,9,9,13,0.00
2013-12-20,41.3,41.3,41.3,31.5,31.5,31.5,38,38,38,29.97,28.80,1,0,0,0.28
2013-12-21,41.3,41.3,41.3,31.5,31.5,31.5,38,38,38,29.00,28.77,0,0,0,0.38
2013-12-22,41.3,41.3,41.3,31.5,31.5,31.5,38,38,38,29.44,29.00,12,1,26,0.04
2013-12-27,41.3,41.3,41.3,31.5,31.5,31.5,38,38,38,29.97,29.44,0,0,0,0.00
2013-12-28,41.3,41.3,41.3,31.5,31.5,31.5,38,38,38,29.47,29.18,6,1,7,0.00
2013-12-29,41.3,41.3,41.3,31.5,31.5,31.5,38,38,38,29.42,29.12,9,2,12,0.00
2013-12-30,41.3,41.3,41.3,31.5,31.5,31.5,38,38,38,29.97,29.36,7,2,10,0.00
2013-12-31,41.3,41.3,41.3,31.5,31.5,31.5,38,38,38,29.59,29.39,5,0,6,0.00
2014-1-1,41.3,41.3,41.3,31.5,31.5,31.5,38,38,38,29.39,29.15,8,1,10,0.00
2014-1-2,41.3,41.3,41.3,31.5,31.5,31.5,38,38,38,29.59,29.27,10,3,15,0.00